FENGYUN 1C DEB, 31360

Orbit data source: Space-Track

FENGYUN 1C DEB, 31360 is space debris in SSO originally from a launch on Mon, 10 May 1999 UTC launched from the Taiyaun Space Center, China (TSC). Fengyun 1C debris stems from the Chinese weather satellite Fengyun-1C, which was intentionally destroyed by a Chinese anti-satellite missile in 2007. This event dramatically increased the amount of space debris, with thousands of trackable fragments posing hazards to satellites and human spaceflight. The Fengyun 1C debris cloud has become a focal point in discussions about space sustainability and the need for international regulations to prevent the creation of new debris.

Loading next visibility...
Identifier
31360, 1999-025BRQ
Orbit
SSO
Country
Flag of CNCN / PRC
Related business
Manufacturer
Unknown
Mission
Spacecraft
Bus & Motor
Unknown
Mass
Unknown
Launch date (UTC)
1999-05-10 (27 years ago)
Launch vehicle
Unknown
Launch site
Taiyaun Space Center, China (TSC)
Object type
Payload
Rocket body
Debris
Shape & HBR
Unknown shape, 1.1 m
Radar Cross Section
Small (<0.1 m²)

Expand to show TLE details & history
Last TLE update: 4 months ago

TLE from 4 months ago
0 FENGYUN 1C DEB
1 31360U 99025BRQ 25240.42269036  .00005890  00000-0  30999-2 0  9997
2 31360  98.0057 109.7988 0102752 177.0475 183.1328 14.11639028616985
Epoch: 2025-08-28T10:08Z
TLE epoch observation values (Epoch: 2025-08-28T10:08:40.447Z)
Latitude
0.00006°
Longitude
-19.25565°
Altitude
930.909 km
Speed
7.348 km/s
True Right ascension
07h 19m 11s
True Declination
0° 00' 00"
Sunlit
Object was in daylight at epoch
Visualization orbit readout
Latitude
Unknown
Longitude
Unknown
Altitude
Unknown
Speed
Unknown
Apparent Right ascension
Unknown
Apparent Declination
Unknown
Sunlit
N/A
Visualization observer readout
Local Sidereal Time
20:51:36
Azimuth
Unknown
Elevation
Unknown
Doppler factor
Unknown
Orbital elements
Apogee altitude
925.185 km
Perigee altitude
776.626 km
Semi-major axis
7,229.042 km
Eccentricity
0.01028
Inclination
98.0057°
RAAN
109.7988°
Arg. of periapsis
177.0475°
True anomaly
183.06927°
Mean anomaly
183.1328°
Eccentric anomaly
183.10095°
Mean motion
3.5312 °/min
Orbital period
101.95 mins
BSTAR
0.0030999
Loading maneuver chart data...
Computing Atmospheric mass density...

Documentation

Showing up to 5 results
|